"Pseudo-MPEC" for P20JEyz

Created 2018 Oct 12 22:18:10 UT using Find_Orb

Click here for an explanation of pseudo-MPECs

 
 Astrometry: 
     P20JEyz  C2018 10 10ZrAstrometryiptt/!b`:_`7?[QCZ-FRtNB].a._\BW%8RySabm_F52
     P20JEyz  C2018 10 10t]6=qwdJLlF/T-q9CnJH`Hb0c$Wdp^=aU58s9de_M?Fy2jG78-9:F52
     P20JEyz  C2018 10 10p#$N5BU+ZLFia_cT#(m+:*4*QKv8?k.vo]1klq%=nZWh`\1bPoP4F52
     P20JEyz KC2018 10 11V08OU!KJ8]o^Ttqi6redacted;NF%.`;skhS%BciZ8E5cIM?e.mh291
     P20JEyz KC2018 10 11Z\X.]7pwRiC1-SpFgbEW%H^AJ45lHKJ0.b`:o`8Gn3=nU%92*Jd]291
     P20JEyz KC2018 10 11tSrf!x72`S8Fmb,_B-.0J?)p+h2U,oP_seeB;t-'Z`s'.5gGXuUB291
     P20JEyz |C2018 10 12yXa]NlK:G1cwK+nf%!G:@A$0bKh]'07_qtgcy[d0Db[*0!ce#'wx807
     P20JEyz |C2018 10 12+-aWOx8_5Q0/MbS7swS.[cdEO@V=!JMy:e8P94OggOt7^Uy3v!C9807
     P20JEyz |C2018 10 12V9rfq3Qd=mf0[fH];gW-Aob@\^AZRxsJJ:A]E+T9LeNhQw%NEOCP807

Station data:
(291) LPL/Spacewatch II  (N31.961669 W111.599905)  US/Arizona.  Observers J.
   V. Scotti, R. S. McMillan. 1.8-m f/2.7 reflector + CCD.
(807) Cerro Tololo Observatory, La Serena  (S30.169136 W70.805900)  Chile.
   1.5-m Ritchey-Chrétien.
(F52) Pan-STARRS 2, Haleakala  (N20.707384 W156.255910)  US/Hawaii.

Orbital elements:  P20JEyz
   Perihelion 2018 Dec 1.895982 +/- 0.143 TT = 21:30:12 (JD 2458454.395982)
Epoch 2018 Oct 12.0 TT = JDT 2458403.5   Earth MOID: 0.0310   Ju: 0.3867
M 348.56157 +/- 0.38                Ve: 0.0007   Ma: 0.0118   AutoNEOCP
n   0.22474123 +/- 0.00687          Peri.   57.61319 +/- 0.08
a   2.67925599 +/- 0.0546           Node    59.76411 +/- 0.11
e   0.8087559 +/- 0.00459           Incl.    3.91978 +/- 0.015
P   4.39                   H 23.7   G  0.15   U  9.4  
q 0.51239173 +/- 0.00183    Q 4.84612025 +/- 0.109
From 9 observations 2018 Oct. 10-12 (45.0 hr); mean residual 0".23
Residuals in arcseconds: 
181010 F52  .12+  .45+    181011 291  .03+  .00     181012 807  .35+  .21+    
181010 F52  .05-  .08+    181011 291  .08-  .02+    181012 807  .00   .28-    
181010 F52  .06-  .56-    181011 291  .04+  .02+    181012 807  .34-  .06+    

Ephemerides (geocentric):
Date (UTC) HH   RA              Dec         delta   r     elong  mag " sig PA
---- -- -- --  -------------   -----------  ------ ------ -----  --- ---- ---
2018 10 12 22  00 24 54.265   -28 18 28.71  .10624 1.0841 142.5 20.4  .38 136
2018 10 12 23  00 24 26.460   -28 27 45.34  .10580 1.0835 142.2 20.4  .40 138
2018 10 13 00  00 23 58.344   -28 37 06.15  .10535 1.0829 142.0 20.4  .42 139
2018 10 13 01  00 23 29.910   -28 46 31.19  .10491 1.0823 141.8 20.4  .43 141
2018 10 13 02  00 23 01.153   -28 56 00.48  .10447 1.0817 141.6 20.4  .45 143
2018 10 13 03  00 22 32.068   -29 05 34.06  .10403 1.0811 141.4 20.4  .47 144
2018 10 13 04  00 22 02.650   -29 15 11.96  .10360 1.0805 141.2 20.4  .49 145
2018 10 13 05  00 21 32.894   -29 24 54.21  .10316 1.0799 141.0 20.4  .50 147
2018 10 13 06  00 21 02.793   -29 34 40.85  .10273 1.0793 140.8 20.4  .52 148
2018 10 13 07  00 20 32.342   -29 44 31.90  .10229 1.0788 140.5 20.4  .54 149
2018 10 13 08  00 20 01.535   -29 54 27.40  .10186 1.0782 140.3 20.4  .56 151
2018 10 13 09  00 19 30.366   -30 04 27.39  .10143 1.0776 140.1 20.4  .58 152
2018 10 13 10  00 18 58.829   -30 14 31.89  .10100 1.0770 139.9 20.4  .61 153
2018 10 13 11  00 18 26.918   -30 24 40.93  .10057 1.0764 139.7 20.4  .63 154
2018 10 13 12  00 17 54.627   -30 34 54.55  .10014 1.0758 139.4 20.3  .65 155
2018 10 13 13  00 17 21.949   -30 45 12.78  .09972 1.0752 139.2 20.3  .67 156
2018 10 13 14  00 16 48.877   -30 55 35.65  .09929 1.0746 139.0 20.3  .70 157
2018 10 13 15  00 16 15.405   -31 06 03.19  .09887 1.0740 138.7 20.3  .72 158
2018 10 13 16  00 15 41.525   -31 16 35.42  .09845 1.0734 138.5 20.3  .75 159
2018 10 13 17  00 15 07.231   -31 27 12.39  .09803 1.0728 138.3 20.3  .78 160
2018 10 13 18  00 14 32.516   -31 37 54.12  .09761 1.0722 138.0 20.3  .80 161
2018 10 13 19  00 13 57.371   -31 48 40.64  .09719 1.0716 137.8 20.3  .83 162
2018 10 13 20  00 13 21.790   -31 59 31.98  .09678 1.0710 137.5 20.3  .86 163
2018 10 13 21  00 12 45.765   -32 10 28.17  .09636 1.0704 137.3 20.3  .89 164
2018 10 13 22  00 12 09.288   -32 21 29.23  .09595 1.0698 137.0 20.3  .92 165
2018 10 13 23  00 11 32.350   -32 32 35.19  .09554 1.0693 136.8 20.3  .95 166
2018 10 14 00  00 10 54.944   -32 43 46.08  .09513 1.0687 136.5 20.3  .98 167
2018 10 14 01  00 10 17.062   -32 55 01.92  .09472 1.0681 136.3 20.3  1.0 168
2018 10 14 02  00 09 38.694   -33 06 22.75  .09431 1.0675 136.0 20.3  1.0 169
2018 10 14 03  00 08 59.832   -33 17 48.57  .09391 1.0669 135.8 20.3  1.1 169
2018 10 14 04  00 08 20.466   -33 29 19.43  .09350 1.0663 135.5 20.3  1.1 170
2018 10 14 05  00 07 40.588   -33 40 55.34  .09310 1.0657 135.3 20.3  1.1 171
2018 10 14 06  00 07 00.189   -33 52 36.32  .09270 1.0651 135.0 20.3  1.2 172
2018 10 14 07  00 06 19.257   -34 04 22.39  .09230 1.0645 134.7 20.3  1.2 172
2018 10 14 08  00 05 37.785   -34 16 13.58  .09191 1.0639 134.5 20.3  1.3 173
2018 10 14 09  00 04 55.761   -34 28 09.90  .09151 1.0633 134.2 20.3  1.3 174
2018 10 14 10  00 04 13.176   -34 40 11.38  .09112 1.0627 133.9 20.3  1.3 175
2018 10 14 11  00 03 30.018   -34 52 18.02  .09073 1.0621 133.6 20.3  1.4 175
2018 10 14 12  00 02 46.278   -35 04 29.85  .09034 1.0615 133.4 20.3  1.4 176
2018 10 14 13  00 02 01.943   -35 16 46.87  .08995 1.0609 133.1 20.3  1.5 177
2018 10 14 14  00 01 17.004   -35 29 09.11  .08956 1.0603 132.8 20.3  1.5 178
2018 10 14 15  00 00 31.447   -35 41 36.57  .08918 1.0597 132.5 20.3  1.6 178
2018 10 14 16  23 59 45.262   -35 54 09.26  .08879 1.0591 132.2 20.3  1.6 179
2018 10 14 17  23 58 58.436   -36 06 47.20  .08841 1.0586 132.0 20.2  1.7   0
2018 10 14 18  23 58 10.957   -36 19 30.38  .08803 1.0580 131.7 20.2  1.7   0
2018 10 14 19  23 57 22.813   -36 32 18.82  .08766 1.0574 131.4 20.2  1.8   1
2018 10 14 20  23 56 33.990   -36 45 12.51  .08728 1.0568 131.1 20.2  1.8   2
2018 10 14 21  23 55 44.475   -36 58 11.46  .08691 1.0562 130.8 20.2  1.9   2